Wind_Speed
9 9 11 13 15 17 18 19 21 23 24 24 25 26 27 28 28 30 31 32 33 34 35 36 36 37 37 38 38 38 38 39 39 40 41 42 42 42 43 44 44 45 46 48
7 9 10 12 14 16 17 19 21 22 23 24 25 25 25 26 27 28 29 30 31 31 31 32 32 33 33 34 35 36 37 37 37 38 39 40 40 41 41 43 44 45 45 46
5 7 8 11 12 14 16 18 20 21 22 23 24 25 25 26 26 27 27 27 27 27 28 28 28 29 30 31 31 32 33 33 34 35 36 37 38 39 40 40 41 42 43 44
4 6 8 9 11 13 15 17 18 20 21 22 23 23 23 24 24 24 25 25 25 25 26 26 27 28 29 29 30 30 30 31 32 33 34 35 36 37 37 38 39 40 41 42
2 5 7 8 10 11 13 15 17 18 18 18 19 20 21 21 20 21 21 21 22 22 23 24 24 25 26 26 27 28 29 29 30 31 32 33 34 35 35 36 36 37 38 39
3 4 5 7 8 9 11 12 13 14 15 15 16 17 17 17 18 19 19 20 20 20 21 21 22 23 23 24 25 26 27 28 29 29 30 31 32 33 33 34 34 35 35 36
5 5 5 6 7 8 9 11 12 12 12 12 14 15 15 15 15 16 16 17 18 18 19 19 20 22 22 23 24 25 25 26 26 27 28 28 29 28 29 29 30 30 31 31
6 6 6 7 7 8 9 10 10 10 10 10 11 12 12 12 12 13 13 14 15 16 17 18 19 21 22 23 24 24 24 24 25 24 24 24 24 24 24 25 25 26 26 25
8 8 8 8 8 8 8 8 8 8 8 8 8 8 9 10 10 10 11 12 13 15 16 18 19 21 21 22 22 22 22 22 22 22 21 20 20 21 21 22 22 22 22 21
9 9 9 9 9 9 8 7 6 6 5 5 5 6 7 7 7 8 10 11 13 15 16 17 19 20 21 21 21 21 21 21 20 19 18 18 19 18 19 19 19 19 18 17
11 11 10 10 10 9 7 7 6 6 5 5 5 5 6 6 7 8 10 11 13 14 15 17 17 18 19 19 19 19 18 18 17 17 16 16 16 16 17 16 16 16 14 14
11 11 11 11 11 10 8 7 7 6 6 5 5 5 6 7 8 9 10 12 13 14 15 15 16 17 17 17 17 17 17 16 15 14 14 14 14 14 14 14 14 13 12 12
12 12 12 12 11 10 9 8 7 7 6 6 6 6 7 8 9 10 11 12 13 14 14 14 15 15 14 14 14 14 14 13 13 12 11 11 12 12 12 11 11 11 10 10
12 12 12 13 12 11 10 9 8 7 7 6 6 7 8 9 10 11 11 12 13 13 14 14 14 14 13 13 12 11 11 10 9 9 9 9 10 10 10 9 9 9 9 8
11 12 13 13 12 11 10 9 8 8 7 7 7 8 9 11 11 11 11 12 13 14 14 14 14 13 13 12 11 10 9 8 8 7 7 7 8 8 8 8 8 8 7 7
11 12 13 13 13 11 10 10 9 9 8 8 8 9 11 11 12 12 13 14 14 14 14 14 14 13 13 11 10 8 8 7 6 6 6 6 7 7 7 7 6 6 6 5
11 12 13 13 13 12 11 10 9 9 9 9 9 10 11 12 13 14 14 15 15 14 14 15 14 14 13 11 9 8 7 6 5 5 5 5 6 6 6 6 6 5 4 4
10 12 13 13 13 12 11 10 10 9 9 9 10 11 13 13 14 15 15 15 15 15 15 16 15 14 13 10 8 7 6 5 4 4 4 4 4 5 5 5 5 4 4 4
10 11 12 13 13 12 11 10 10 9 9 9 10 12 14 14 15 16 16 16 17 17 17 16 16 14 12 10 7 6 5 4 4 4 3 3 4 4 4 4 4 4 4 4
9 10 12 13 13 12 11 10 10 9 9 10 11 12 14 15 16 16 17 18 18 18 18 17 16 15 13 11 9 8 6 5 4 4 4 3 4 4 4 4 4 4 4 4
8 10 11 12 12 12 11 10 10 9 9 10 11 12 13 15 16 17 18 18 19 18 18 18 17 16 15 13 12 10 9 8 7 6 5 4 4 4 4 4 4 4 5 5
7 9 10 11 12 12 11 10 9 9 9 9 10 11 13 14 16 17 17 18 19 19 19 18 18 17 16 14 13 11 10 9 8 7 7 6 6 5 5 5 5 5 5 5
7 8 10 11 11 11 11 10 9 9 9 9 9 10 12 13 15 16 16 17 18 19 19 19 19 18 17 16 14 13 12 10 10 9 8 8 8 7 7 7 7 7 7 7
7 8 9 10 11 11 11 10 9 9 8 9 9 9 10 12 13 14 15 16 17 17 18 18 18 18 17 17 15 14 13 12 11 10 10 9 9 9 9 9 9 9 9 9
8 9 9 10 10 11 10 10 9 9 8 8 8 8 9 10 11 13 14 15 16 16 16 17 17 17 17 17 16 15 14 13 12 12 11 10 10 9 9 9 9 9 9 9
10 10 10 10 10 10 10 10 9 9 8 8 8 8 8 8 9 11 12 13 14 15 15 16 16 16 16 16 16 15 14 14 13 12 12 11 11 10 10 9 9 9 9 9
13 12 11 11 11 11 11 10 10 9 8 8 8 7 7 7 7 8 9 11 11 13 14 14 14 15 15 15 15 15 15 14 13 13 12 12 11 10 10 9 9 9 9 9
Wind_Direction
206 212 220 225 228 232 236 239 245 250 254 255 258 260 261 262 263 264 264 264 264 265 267 268 269 269 270 271 272 273 272 272 273 275 276 276 277 278 279 280 281 282 284 285
211 218 228 234 238 241 244 246 249 253 257 259 261 262 263 264 265 266 265 265 265 267 268 268 268 269 270 271 271 273 273 274 275 276 277 277 278 279 281 282 283 285 287 287
222 229 240 244 246 248 251 254 256 259 262 263 262 262 264 265 264 262 262 264 264 266 268 268 269 270 271 272 273 274 275 276 277 278 279 281 283 284 286 287 288 290 291 292
244 248 254 259 259 259 261 261 262 265 267 266 266 265 262 260 261 262 263 265 268 269 268 269 270 271 271 273 275 276 278 279 281 282 284 286 288 289 290 291 293 293 294 296
290 276 275 275 273 270 269 270 269 269 270 268 264 260 257 258 261 263 265 264 264 266 267 269 270 272 273 275 278 280 282 284 285 287 288 290 292 294 294 295 296 298 298 299
337 311 301 292 286 281 279 277 275 274 272 270 268 263 260 261 261 262 264 265 266 267 269 272 275 277 280 283 285 286 288 289 290 292 293 295 296 297 297 298 299 300 301 302
2 340 324 311 301 295 291 288 284 280 276 274 270 268 267 267 267 267 268 269 272 275 278 281 284 285 286 288 288 289 290 291 293 296 297 299 300 301 302 303 304 305 306 307
3 352 340 327 315 310 304 298 292 286 283 278 273 272 274 276 275 274 276 278 280 283 285 287 288 289 290 290 291 290 291 294 296 299 301 304 305 307 308 309 311 311 312 314
8 2 352 344 338 332 326 319 312 304 296 290 286 283 284 285 285 284 284 284 286 287 289 292 293 293 293 293 292 291 292 294 297 300 303 306 309 310 312 313 315 316 318 321
17 12 7 1 355 350 347 343 337 330 320 311 307 301 299 296 292 290 289 290 291 294 295 296 296 295 295 295 293 292 293 295 297 300 304 307 311 314 316 318 320 323 326 328
21 18 14 10 7 5 4 1 357 350 342 335 327 319 313 307 302 301 301 302 302 303 303 302 302 302 300 298 297 296 295 294 295 300 304 307 312 316 318 321 325 329 331 334
21 19 16 13 11 12 10 5 2 358 355 349 343 336 327 322 318 315 313 311 311 311 311 311 310 309 305 302 300 298 296 295 296 300 303 307 313 318 322 324 330 335 338 341
23 21 18 15 13 13 11 8 6 4 1 358 354 348 342 337 332 328 324 320 317 316 317 317 317 316 315 312 309 305 301 297 297 300 303 308 315 320 324 328 334 340 344 348
24 22 20 17 16 14 14 13 12 7 3 1 358 353 349 343 338 334 331 330 328 326 324 322 322 321 321 320 318 315 310 304 302 302 305 310 318 324 328 332 337 343 348 353
24 23 21 19 18 17 16 14 11 7 6 4 1 357 353 349 348 345 342 340 338 335 332 330 328 326 322 320 319 318 316 313 311 309 310 315 323 329 334 339 342 349 356 4
24 23 21 20 19 19 17 15 12 10 8 7 5 3 1 359 358 355 351 348 346 343 341 339 335 331 326 322 320 317 317 316 316 316 316 321 327 334 340 346 351 355 5 16
23 22 21 20 20 19 16 14 13 13 12 11 11 9 7 6 2 359 358 357 356 353 350 348 344 338 333 329 327 324 322 322 321 321 324 328 333 340 348 356 3 8 18 32
22 21 20 18 17 16 15 15 15 15 15 16 15 14 13 10 8 7 6 4 3 359 355 352 350 347 343 340 338 337 336 339 339 336 339 343 349 355 1 5 11 20 32 43
18 18 17 16 15 15 14 14 15 15 16 16 15 16 16 14 13 12 11 10 8 6 3 360 358 358 357 357 358 356 355 358 1 360 1 4 7 9 12 17 24 33 39 45
12 13 13 13 12 13 13 13 14 14 15 15 15 16 16 16 16 16 15 14 13 13 12 11 11 14 18 24 28 30 29 29 27 27 26 23 19 19 24 28 36 45 47 50
4 7 8 9 9 10 10 10 11 11 12 13 14 16 17 18 18 18 18 19 19 18 18 20 23 27 32 37 40 42 44 44 44 45 43 39 35 35 38 42 49 57 58 60
350 358 2 3 4 5 5 6 5 6 8 9 10 13 16 18 19 20 21 23 24 25 26 28 31 33 36 39 41 43 44 45 46 47 48 48 50 53 57 60 63 66 68 67
331 344 352 355 357 358 359 360 359 359 2 4 6 10 13 17 19 21 23 25 27 29 31 33 35 37 39 40 42 44 46 47 49 51 54 57 60 62 66 68 70 73 73 72
313 327 337 344 348 350 351 352 352 352 354 358 1 5 9 14 18 21 24 26 28 29 31 32 35 37 38 40 42 44 46 49 51 54 56 59 64 67 70 73 75 76 76 75
296 309 320 329 336 340 342 343 344 345 345 349 353 357 3 10 15 18 21 24 26 28 29 31 33 35 37 39 41 43 46 49 51 53 56 60 65 69 72 75 74 74 73 72
282 292 304 314 322 327 330 333 333 334 334 337 341 346 352 359 6 11 16 20 24 27 28 30 33 35 36 38 40 42 45 48 50 53 57 61 66 68 70 70 70 70 69 68
273 280 290 299 308 314 318 321 322 322 322 323 326 330 336 343 350 359 6 12 18 23 27 28 30 33 36 38 41 43 45 47 50 53 56 59 62 64 65 67 66 66 66 67
Height
5754 5755 5757 5758 5760 5762 5763 5765 5766 5766 5767 5767 5768 5769 5769 5769 5770 5770 5770 5770 5771 5771 5770 5770 5770 5769 5768 5767 5766 5765 5763 5761 5759 5757 5755 5753 5751 5748 5745 5743 5739 5736 5732 5729
5752 5753 5755 5756 5757 5758 5759 5759 5760 5760 5761 5761 5762 5762 5762 5762 5762 5762 5762 5762 5761 5761 5761 5760 5759 5759 5758 5757 5756 5754 5753 5751 5749 5747 5745 5742 5740 5737 5734 5731 5728 5725 5721 5717
5751 5752 5752 5753 5753 5754 5754 5754 5755 5755 5755 5755 5755 5755 5755 5755 5755 5754 5754 5753 5753 5752 5752 5751 5751 5750 5749 5748 5746 5745 5743 5741 5739 5737 5735 5733 5730 5727 5724 5721 5718 5714 5710 5706
5750 5751 5751 5752 5750 5750 5750 5749 5749 5749 5748 5748 5748 5748 5747 5747 5747 5746 5746 5745 5745 5744 5744 5743 5742 5741 5740 5739 5738 5736 5734 5733 5731 5729 5726 5723 5721 5718 5715 5711 5708 5704 5699 5695
5748 5748 5748 5748 5746 5746 5745 5744 5744 5743 5742 5742 5741 5740 5740 5740 5740 5739 5738 5738 5737 5737 5736 5736 5735 5734 5733 5731 5730 5728 5726 5724 5722 5720 5718 5715 5712 5709 5705 5702 5698 5694 5689 5685
5747 5747 5746 5746 5743 5742 5742 5740 5739 5738 5737 5736 5736 5735 5735 5734 5733 5733 5733 5732 5731 5730 5730 5729 5728 5727 5726 5724 5723 5721 5719 5717 5715 5712 5710 5707 5704 5701 5697 5693 5689 5685 5680 5676
5746 5745 5744 5743 5740 5740 5739 5738 5735 5733 5732 5732 5731 5731 5730 5728 5728 5728 5727 5727 5726 5725 5724 5723 5722 5721 5719 5718 5716 5714 5712 5710 5708 5705 5703 5700 5696 5693 5689 5685 5681 5677 5672 5667
5746 5744 5744 5740 5738 5737 5736 5732 5731 5730 5729 5728 5727 5726 5725 5724 5724 5723 5723 5722 5721 5721 5720 5718 5717 5715 5713 5712 5709 5707 5705 5703 5701 5698 5696 5693 5689 5686 5682 5679 5675 5670 5666 5661
5746 5745 5741 5738 5736 5734 5732 5730 5728 5727 5726 5725 5724 5723 5722 5722 5721 5720 5719 5719 5718 5716 5715 5713 5712 5710 5708 5705 5703 5701 5699 5697 5694 5692 5689 5686 5684 5680 5677 5673 5669 5665 5660 5656
5744 5742 5739 5737 5735 5732 5730 5728 5726 5725 5724 5723 5722 5721 5720 5719 5718 5717 5716 5715 5714 5712 5711 5709 5706 5704 5702 5699 5697 5695 5693 5690 5688 5686 5684 5681 5678 5675 5672 5669 5665 5661 5656 5653
5744 5742 5739 5736 5734 5731 5729 5727 5725 5723 5722 5721 5720 5719 5718 5717 5716 5715 5714 5712 5710 5708 5706 5704 5701 5699 5696 5693 5691 5689 5687 5685 5683 5681 5679 5677 5674 5671 5668 5665 5662 5658 5654 5651
5745 5742 5739 5736 5733 5731 5728 5726 5725 5723 5721 5720 5719 5718 5717 5715 5714 5712 5711 5709 5707 5704 5702 5699 5697 5693 5690 5688 5685 5683 5681 5679 5678 5676 5674 5673 5671 5668 5665 5662 5659 5656 5653 5650
5744 5742 5739 5736 5733 5730 5728 5726 5724 5722 5721 5720 5718 5717 5716 5714 5712 5710 5708 5706 5704 5701 5698 5695 5692 5689 5686 5683 5680 5678 5676 5675 5673 5672 5671 5669 5668 5665 5663 5660 5657 5655 5652 5649
5745 5742 5739 5736 5733 5730 5728 5726 5724 5722 5721 5719 5718 5716 5714 5713 5710 5708 5706 5703 5700 5698 5695 5692 5688 5685 5682 5680 5677 5675 5673 5671 5670 5669 5668 5667 5665 5663 5661 5658 5656 5654 5651 5649
5745 5742 5740 5736 5733 5731 5728 5726 5724 5722 5721 5719 5717 5716 5714 5711 5709 5707 5704 5701 5698 5694 5691 5688 5685 5682 5679 5676 5674 5672 5670 5669 5668 5667 5666 5664 5663 5661 5659 5657 5655 5653 5651 5649
5745 5743 5740 5737 5734 5731 5729 5727 5725 5723 5721 5719 5717 5715 5713 5711 5708 5705 5702 5699 5695 5692 5689 5685 5682 5678 5675 5673 5671 5669 5668 5667 5666 5665 5664 5663 5661 5660 5658 5656 5654 5652 5651 5649
5745 5743 5740 5737 5734 5732 5729 5727 5725 5723 5721 5719 5717 5715 5713 5710 5707 5704 5701 5697 5694 5690 5687 5683 5679 5676 5672 5670 5668 5667 5665 5664 5664 5663 5662 5661 5660 5659 5657 5655 5654 5652 5651 5649
5745 5743 5740 5737 5735 5732 5730 5727 5725 5723 5722 5720 5718 5715 5713 5710 5707 5703 5700 5696 5693 5689 5685 5681 5677 5674 5670 5668 5666 5665 5664 5663 5662 5662 5661 5660 5659 5658 5657 5655 5654 5653 5651 5650
5745 5743 5740 5738 5735 5732 5730 5728 5726 5724 5722 5720 5718 5716 5713 5710 5707 5703 5700 5696 5692 5688 5684 5680 5676 5672 5668 5666 5664 5664 5663 5662 5662 5661 5660 5660 5659 5658 5657 5655 5654 5653 5652 5651
5744 5742 5740 5738 5735 5733 5730 5728 5726 5724 5722 5720 5718 5716 5713 5711 5707 5704 5700 5697 5693 5689 5685 5681 5676 5672 5669 5666 5665 5664 5663 5662 5662 5661 5660 5660 5659 5658 5657 5656 5655 5654 5653 5652
5744 5742 5740 5738 5735 5733 5731 5729 5727 5725 5723 5721 5719 5717 5714 5711 5708 5705 5701 5698 5694 5690 5686 5682 5679 5675 5672 5669 5667 5666 5665 5664 5663 5662 5661 5660 5659 5658 5658 5657 5656 5655 5654 5653
5743 5741 5739 5737 5735 5733 5731 5729 5727 5725 5723 5721 5719 5717 5715 5712 5709 5706 5703 5700 5696 5692 5688 5685 5681 5678 5675 5672 5670 5668 5667 5666 5665 5663 5662 5661 5660 5660 5659 5658 5657 5656 5656 5655
5741 5740 5738 5737 5735 5733 5731 5729 5727 5725 5723 5721 5720 5718 5716 5713 5711 5708 5705 5702 5698 5695 5692 5688 5685 5682 5679 5676 5674 5671 5670 5668 5667 5666 5664 5663 5662 5661 5660 5660 5659 5658 5658 5657
5739 5738 5737 5736 5734 5732 5730 5728 5726 5725 5723 5721 5720 5718 5716 5714 5712 5709 5707 5704 5701 5698 5695 5692 5689 5686 5683 5680 5677 5675 5673 5671 5670 5668 5667 5666 5665 5664 5663 5662 5662 5661 5660 5660
5737 5736 5735 5734 5733 5731 5729 5727 5726 5724 5723 5721 5720 5718 5716 5715 5713 5711 5708 5706 5703 5700 5698 5695 5692 5689 5686 5684 5681 5679 5677 5675 5673 5671 5670 5669 5668 5667 5666 5665 5665 5664 5663 5663
5734 5734 5733 5732 5731 5730 5728 5726 5725 5723 5722 5720 5719 5718 5716 5715 5713 5711 5709 5707 5705 5703 5700 5698 5695 5692 5690 5687 5685 5682 5680 5678 5677 5675 5674 5672 5671 5670 5669 5669 5668 5667 5666 5665
5730 5730 5730 5729 5728 5727 5726 5725 5723 5722 5721 5719 5718 5717 5716 5714 5713 5712 5710 5708 5707 5704 5702 5700 5698 5695 5693 5691 5688 5686 5684 5682 5680 5679 5677 5676 5675 5674 5673 5672 5671 5670 5669 5668